sat.trackr.live / text

‹ back to catalog

STARLINK-31833

NORAD 59733 · 2024-090D

PAYLOAD ACTIVE UNKNOWN

§ Identity

Operator
Country
US
Launch date
2024-05-13
Launch site
AFETR
Launch vehicle
Mass (kg)
RCS (m²)

Purposes: comms

External: N2YO · Heavens-Above · Gunter

§ Orbital elements

Epoch: 2026-05-24T23:10:47.955648Z

Period
94.27 min
Inclination
43.0035°
Eccentricity
0.0001766
Mean motion
15.27551993 rev/d
Perigee alt
481.9 km
Apogee alt
484.3 km
Semi-major
6,861.3 km
B*
-1.0216e-4
RAAN
112.8958°
Arg perigee
286.6970°
Mean anomaly
73.3688°
Rev number
11,510

§ Raw data

STARLINK-318331 59733U 24090D   26144.96583282 -.00003070  00000+0 -10216-3 0  99962 59733  43.0035 112.8958 0001766 286.6970  73.3688 15.27551993115106

JSON: /api/v1/satellites/59733 · /tle

For live sub-satellite position, see the globe view (requires WebGL).

§ Visibility from observer

Set your observer location to see the next 7 days of passes ≥ 10°. The values pass through the URL so the page stays shareable.

No JS? Fill the form by hand. The geolocation button needs JavaScript.